DW9177 Weather Reports


Display with metric or nautical units.
time (UTC)temp
F
wind
direction
speed
MPH
gust
MPH
rain 1hr
in
rain 24hr
in
rain mn
in
humidity
%
barometer
mb
20260906090049 80 111 1.0 5.0 0.00 0.00 0.00 53 1006.4
20260906084539 80 110 3.0 7.0 0.00 0.00 0.00 52 1006.5
20260906083045 81 105 2.0 5.0 0.00 0.00 0.00 52 1006.5
20260906081536 81 104 3.0 6.0 0.00 0.00 0.00 51 1006.5
20260906080038 81 105 4.0 7.0 0.00 0.00 0.00 52 1006.6
20260906074533 81 101 2.0 5.0 0.00 0.00 0.00 52 1006.9
20260906073029 81 106 3.0 5.0 0.00 0.00 0.00 52 1006.8
20260906071528 80 177 0.0 2.0 0.00 0.00 0.00 52 1007.0
20260906070024 81 102 1.0 2.0 0.00 0.00 0.00 52 1007.0
20260906064524 81 101 1.0 3.0 0.00 0.00 0.00 51 1006.9
20260906063024 81 101 0.0 0.0 0.00 0.00 0.00 52 1006.9
20260906061523 81 100 0.0 0.0 0.00 0.00 0.00 52 1007.0
20260906060024 82 101 0.0 1.0 0.00 0.00 0.00 52 1007.0
20260906054522 82 102 0.0 0.0 0.00 0.00 0.00 50 1006.9
20260906053024 83 91 0.0 0.0 0.00 0.00 0.00 48 1007.0
20260906051522 84 150 0.0 0.0 0.00 0.00 0.00 48 1006.9
20260906050021 85 151 0.0 0.0 0.00 0.00 0.00 45 1006.9
20260906044520 86 151 0.0 0.0 0.00 0.00 0.00 44 1006.9
20260906043028 87 151 0.0 3.0 0.00 0.00 0.00 42 1006.8
20260906041519 87 136 0.0 2.0 0.00 0.00 0.00 42 1006.9
20260906040018 88 133 0.0 4.0 0.00 0.00 0.00 41 1006.9
20260906034531 88 134 0.0 2.0 0.00 0.00 0.00 41 1006.8
20260906033017 89 135 1.0 4.0 0.00 0.00 0.00 40 1006.6
20260906031525 89 138 2.0 5.0 0.00 0.00 0.00 39 1006.4
20260906030017 90 140 1.0 6.0 0.00 0.00 0.00 39 1006.3
20260906024515 90 136 1.0 6.0 0.00 0.00 0.00 39 1006.1
20260906023014 90 134 3.0 7.0 0.00 0.00 0.00 38 1006.0
20260906021514 91 139 4.0 10.0 0.00 0.00 0.00 38 1005.9
20260906020013 91 122 5.0 10.0 0.00 0.00 0.00 38 1005.9
20260906014513 91 158 3.0 11.0 0.00 0.00 0.00 37 1005.8
20260906013013 92 136 4.0 9.0 0.00 0.00 0.00 37 1005.7
20260906011512 92 148 4.0 12.0 0.00 0.00 0.00 36 1005.8
20260906010011 93 134 4.0 11.0 0.00 0.00 0.00 36 1005.8
20260906004510 95 144 4.0 12.0 0.00 0.00 0.00 35 1005.7
20260906003010 95 157 4.0 11.0 0.00 0.00 0.00 35 1005.8
20260906001508 96 129 4.0 9.0 0.00 0.00 0.00 34 1005.7
20260906000008 96 136 4.0 12.0 0.00 0.00 0.00 33 1005.7
20260905234507 97 140 4.0 12.0 0.00 0.00 0.00 33 1005.6
20260905233006 97 139 3.0 11.0 0.00 0.00 0.00 32 1005.6
20260905231510 97 127 4.0 10.0 0.00 0.00 0.00 32 1005.6
20260905230003 97 152 3.0 10.0 0.00 0.00 0.00 32 1005.8
20260905224502 97 151 3.0 10.0 0.00 0.00 0.00 32 1005.9
20260905223004 98 144 5.0 10.0 0.00 0.00 0.00 31 1005.9
20260905221602 98 124 4.0 10.0 0.00 0.00 0.00 32 1006.0
20260905220059 97 133 7.0 11.0 0.00 0.00 0.00 32 1006.1
20260905214557 98 136 4.0 13.0 0.00 0.00 0.00 32 1006.4
20260905213054 98 127 1.0 7.0 0.00 0.00 0.00 32 1006.6
20260905211552 98 136 1.0 6.0 0.00 0.00 0.00 31 1006.8
20260905210106 98 132 4.0 9.0 0.00 0.00 0.00 31 1007.0
20260905204548 98 139 3.0 6.0 0.00 0.00 0.00 32 1007.1
20260905203047 97 155 1.0 8.0 0.00 0.00 0.00 33 1007.5
20260905201544 97 133 2.0 7.0 0.00 0.00 0.00 34 1007.7
20260905200107 96 143 4.0 9.0 0.00 0.00 0.00 34 1007.8
20260905194540 96 131 3.0 7.0 0.00 0.00 0.00 36 1008.1
20260905193041 96 137 3.0 7.0 0.00 0.00 0.00 36 1008.3
20260905191535 95 148 2.0 6.0 0.00 0.00 0.00 37 1008.5
20260905190033 94 127 3.0 6.0 0.00 0.00 0.00 37 1008.7
20260905184537 94 136 4.0 7.0 0.00 0.00 0.00 38 1009.0
20260905183038 93 141 3.0 7.0 0.00 0.00 0.00 38 1009.2
20260905181535 93 136 2.0 7.0 0.00 0.00 0.00 39 1009.4
20260905180032 93 149 0.0 4.0 0.00 0.00 0.00 38 1009.6
20260905174526 92 132 2.0 6.0 0.00 0.00 0.00 39 1009.5
20260905173033 91 102 1.0 5.0 0.00 0.00 0.00 42 1009.7
20260905171520 90 138 1.0 5.0 0.00 0.00 0.00 44 1009.7
20260905170020 90 125 1.0 4.0 0.00 0.00 0.00 44 1009.9
20260905164521 89 98 0.0 3.0 0.00 0.00 0.00 45 1009.9
20260905163017 89 126 0.0 2.0 0.00 0.00 0.00 46 1009.9
20260905161514 89 113 0.0 3.0 0.00 0.00 0.00 47 1010.0
20260905160012 88 127 0.0 0.0 0.00 0.00 0.00 48 1010.0
20260905154510 88 114 0.0 0.0 0.00 0.00 0.00 50 1009.9
20260905153014 87 104 0.0 0.0 0.00 0.00 0.00 51 1010.0
20260905151507 85 105 0.0 0.0 0.00 0.00 0.00 54 1010.0
20260905150002 83 105 0.0 0.0 0.00 0.00 0.00 57 1010.0
20260905144601 82 104 0.0 0.0 0.00 0.00 0.00 59 1010.1
20260905144500 82 104 0.0 0.0 0.00 0.00 0.00 60 1010.1
20260905143057 79 104 0.0 2.0 0.00 0.00 0.00 65 1009.9
20260905141555 77 103 0.0 2.0 0.00 0.00 0.00 68 1009.8
20260905140054 77 101 1.0 4.0 0.00 0.00 0.00 68 1009.6
20260905134552 76 101 2.0 4.0 0.00 0.00 0.00 70 1009.5
20260905133049 74 103 0.0 0.0 0.00 0.00 0.00 74 1009.2
20260905131556 73 98 0.0 0.0 0.00 0.00 0.00 75 1008.9
20260905130046 73 104 0.0 0.0 0.00 0.00 0.00 75 1008.8
20260905124546 73 108 0.0 0.0 0.00 0.00 0.00 76 1008.8
20260905123104 73 98 0.0 0.0 0.00 0.00 0.00 75 1008.5
20260905121542 73 98 0.0 0.0 0.00 0.00 0.00 74 1008.5
20260905120042 73 98 0.0 0.0 0.00 0.00 0.00 74 1008.5
20260905114544 74 98 0.0 0.0 0.00 0.00 0.00 72 1008.4
20260905113039 74 98 0.0 0.0 0.00 0.00 0.00 72 1008.4
20260905111538 75 101 0.0 0.0 0.00 0.00 0.00 71 1008.5
20260905110036 75 103 0.0 0.0 0.00 0.00 0.00 71 1008.5
20260905104534 75 103 0.0 0.0 0.00 0.00 0.00 70 1008.4
20260905103042 76 103 0.0 0.0 0.00 0.00 0.00 69 1008.4
20260905101530 76 103 0.0 0.0 0.00 0.00 0.00 67 1008.4
20260905100039 77 105 0.0 2.0 0.00 0.00 0.00 66 1008.4
20260905094528 77 105 1.0 6.0 0.00 0.00 0.00 66 1008.5
20260905093027 76 105 0.0 3.0 0.00 0.00 0.00 67 1008.5
20260905091529 76 103 0.0 0.0 0.00 0.00 0.00 67 1008.5